Regional Weather Roundup
Issued by NWS

Home | Current Version | Previous Version | Graphics & Text | Print | Product List | Glossary Off
Versions: 1 2 3 4 5 6 7 8 9 10 11 12 13 14 15 16 17 18 19 20 21 22 23 24 25 26 27 28 29 30 31 32 33 34 35 36 37 38 39 40 41 42 43 44 45 46 47 48 49 50

000
ASUS43 KLSX 201110
RWRMO

WEATHER SUMMARY FOR MISSOURI
NATIONAL WEATHER SERVICE SPRINGFIELD MO
600 AM CDT THU JUL 20 2017

NOTE: "FAIR" INDICATES FEW OR NO CLOUDS BELOW 12,000 FEET WITH NO
       SIGNIFICANT WEATHER AND/OR OBSTRUCTIONS TO VISIBILITY.
       CURRENT SKY AND/OR WEATHER CONDITIONS ARE NOT AVAILABLE FOR
       CHILLICOTHE AND FARMINGTON.

MOZ001>031-035>038-043-044-053-054-201200-
...NORTHERN AND WESTERN MISSOURI...

CITY           SKY/WX    TMP DP  RH WIND       PRES   REMARKS
KANSAS CTY INT PTCLDY    77  71  82 S13       30.02S
KANSAS C DTWN  CLEAR     81  72  74 S10       30.01F
LEE`S SUMMIT   CLEAR     78  71  79 SW13      30.04S
ST JOSEPH      CLEAR     76  73  91 S8        29.99R
CHILLICOTHE      N/A     76  72  87 S3        30.02R
KIRKSVILLE     PTCLDY    78  72  81 SW10      30.02R

$$
MOZ066>068-077>081-088>096-101>105-201200-
...SOUTHWEST MISSOURI...

CITY           SKY/WX    TMP DP  RH WIND       PRES   REMARKS
SPRINGFIELD    CLEAR     73  70  90 S7        30.11R
JOPLIN         CLEAR     77  73  87 S7        30.10R
BRANSON        CLEAR     73  68  83 CALM      30.14S

$$
MOZ032>034-039>042-045>050-055>058-069>072-201200-
...CENTRAL MISSOURI...

CITY           SKY/WX    TMP DP  RH WIND       PRES   REMARKS
COLUMBIA       CLEAR     75  70  84 SW5       30.07R
JEFFERSON CITY CLEAR     77  72  84 CALM      30.05R
ROLLA          CLEAR     73  70  90 SW9       30.09R
SEDALIA        CLEAR     77  72  84 SW10      30.06S
WHITEMAN AFB   CLEAR     76  76 100 SW12      30.04S
WARRENSBURG    CLEAR     75  70  83 S8        30.05R
OSAGE BEACH    CLEAR     70  68  93 CALM      30.08

$$
MOZ051-052-059>065-201200-
...EAST CENTRAL MISSOURI...

CITY           SKY/WX    TMP DP  RH WIND       PRES   REMARKS
ST LOUIS INTL  CLOUDY    83  69  62 SW12      30.05R
SPIRIT OF STL  CLEAR     77  71  82 SW6       30.04R
ST CHARLES     CLOUDY    75  73  93 CALM      30.03R

$$
MOZ072>076-082>087-097>100-106>115-201200-
...SOUTH CENTRAL AND SOUTHEAST MISSOURI...

CITY           SKY/WX    TMP DP  RH WIND       PRES   REMARKS
CAPE GIRARDEAU CLEAR     72  70  93 W3        30.07S FOG
FARMINGTON     CLEAR     74  71  91 S3        30.10R
POPLAR BLUFF   CLEAR     75  74  96 CALM      30.09R FOG
WEST PLAINS    CLEAR     74  71  91 SW6       30.13S

$$



USA.gov is the U.S. government's official web portal to all federal, state and local government web resources and services.